Weather History for Mytilini, Greece

Change the Weather History Date:

Saturday, July 13, 2013

  Actual Average Record
Temperature  
Mean Temperature 83 °F -  
Max Temperature 90 °F 87 °F 102 °F (2000)
Min Temperature 76 °F 71 °F 68 °F (2014)
Cooling Degree Days 18    
Growing Degree Days 33 (Base 50)    
Moisture  
Dew Point 60 °F    
Average Humidity 45    
Maximum Humidity 61    
Minimum Humidity 27    
Precipitation  
Precipitation 0.00 in 0.00 in - ()
Sea Level Pressure  
Sea Level Pressure 29.85 in    
Wind  
Wind Speed 12 mph ()    
Max Wind Speed 22 mph    
Max Gust Speed -    
Visibility 11.6 miles    
Events      
Averages and records for this station are not official NWS values.
T = Trace of Precipitation, MM = Missing Value Source: Averaged Metar Reports

Daily Weather History Graph

Daily Weather History Graph

Search for Another Location

Airport:

Trip Planner

Search our weather history database for the weather conditions in past years. The results will help you decide how hot, cold, wet, or windy it might be!

Date:

Astronomy

Jul. 13, 2013 Rise Set
Actual Time 5:58 AM EEST 8:39 PM EEST
Civil Twilight 5:27 AM EEST 9:11 PM EEST
Nautical Twilight 4:48 AM EEST 9:50 PM EEST
Astronomical Twilight 4:03 AM EEST 10:34 PM EEST
Moon 10:52 AM EEST (7/13) 11:13 PM EEST (7/13)
Length of Visible Light 15h 43m
Length of Day
14h 41m
Waxing Crescent, 23% of the Moon is Illuminated
Jul 13
Waxing Crescent
Jul 16
First Quarter
Jul 22
Full
Jul 29
Last Quarter
Aug 7
New

Hourly Weather History & Observations

Time (EEST) Temp. Heat Index Dew Point Humidity Pressure Visibility Wind Dir Wind Speed Gust Speed Precip Events Conditions
12:00 AM 80 °F - 59 °F 38% 29.87 in 9 mi NW 17.9 mph - -  
12:50 AM 78.8 °F - 60.8 °F 54% 29.86 in - North - - N/A   Clear
1:50 AM 78.8 °F - 59.0 °F 51% 29.86 in - North - - N/A   Clear
2:50 AM 78.8 °F - 57.2 °F 47% 29.86 in - North - - N/A   Clear
3:00 AM 78 °F - 58 °F 39% 29.87 in 9 mi WNW 9.2 mph - -  
3:50 AM 77.0 °F - 57.2 °F 50% 29.86 in - North - - N/A   Clear
4:20 AM 77.0 °F - 57.2 °F 50% 29.86 in - North - - N/A   Clear
4:50 AM 77.0 °F - 57.2 °F 50% 29.86 in - North - - N/A   Clear
5:20 AM 77.0 °F - 57.2 °F 50% 29.86 in - North - - N/A   Clear
5:50 AM 77.0 °F - 57.2 °F 50% 29.86 in - North - - N/A   Clear
6:00 AM 77 °F - 57 °F 40% 29.87 in 9 mi NW 20.1 mph - -  
6:20 AM 77.0 °F - 57.2 °F 50% 29.86 in - North - - N/A   Clear
6:50 AM 77.0 °F - 57.2 °F 50% 29.86 in - North - - N/A   Clear
7:20 AM 77.0 °F - 57.2 °F 50% 29.86 in - North - - N/A   Clear
7:50 AM 78.8 °F - 59.0 °F 51% 29.86 in - North - - N/A   Clear
8:20 AM 78.8 °F - 59.0 °F 51% 29.86 in - North - - N/A   Clear
8:50 AM 80.6 °F 81.1 °F 59.0 °F 48% 29.86 in - North - - N/A   Clear
9:00 AM 80 °F - 59 °F 39% 29.88 in 9 mi NW 11.5 mph - -  
9:20 AM 80.6 °F 81.1 °F 59.0 °F 48% 29.86 in - North - - N/A   Clear
9:50 AM 80.6 °F 81.1 °F 59.0 °F 48% 29.86 in - North - - N/A   Clear
10:20 AM 80.6 °F 81.1 °F 59.0 °F 48% 29.86 in - North - - N/A   Clear
10:50 AM 80.6 °F 81.1 °F 59.0 °F 48% 29.86 in - North - - N/A   Clear
11:20 AM 82.4 °F 82.0 °F 57.2 °F 42% 29.86 in - North - - N/A   Clear
11:50 AM 84.2 °F 83.0 °F 55.4 °F 37% 29.86 in - North - - N/A   Clear
12:00 PM 84 °F - 55 °F 27% 29.88 in 9 mi NW 22.4 mph - -  
12:20 PM 86.0 °F 84.5 °F 55.4 °F 35% 29.86 in - North - - N/A   Clear
12:50 PM 86.0 °F 84.9 °F 57.2 °F 37% 29.86 in - North - - N/A   Clear
1:20 PM 87.8 °F 87.1 °F 59.0 °F 38% 29.86 in - North - - N/A   Clear
1:50 PM 87.8 °F 87.1 °F 59.0 °F 38% 29.86 in - North - - N/A   Clear
2:20 PM 87.8 °F 87.1 °F 59.0 °F 38% 29.86 in - North - - N/A   Clear
2:50 PM 89.6 °F 89.5 °F 60.8 °F 38% 29.86 in - North - - N/A   Clear
3:00 PM 89 °F - 61 °F 28% 29.86 in 16 mi NW 11.5 mph - -  
3:20 PM 89.6 °F 89.5 °F 60.8 °F 38% 29.86 in - North - - N/A   Clear
3:50 PM 89.6 °F 89.5 °F 60.8 °F 38% 29.83 in - North - - N/A   Clear
4:20 PM 89.6 °F 89.5 °F 60.8 °F 38% 29.83 in - North - - N/A   Clear
4:50 PM 89.6 °F 89.5 °F 60.8 °F 38% 29.83 in - North - - N/A   Clear
5:20 PM 89.6 °F 89.5 °F 60.8 °F 38% 29.83 in - North - - N/A   Clear
5:50 PM 89.6 °F 89.5 °F 60.8 °F 38% 29.83 in - North - - N/A   Clear
6:00 PM 90 °F - 61 °F 28% 29.83 in 16 mi NNW 17.9 mph - -  
6:20 PM 89.6 °F 89.5 °F 60.8 °F 38% 29.80 in - North - - N/A   Clear
6:50 PM 89.6 °F 89.5 °F 60.8 °F 38% 29.83 in - North - - N/A   Clear
7:20 PM 87.8 °F 87.1 °F 59.0 °F 38% 29.80 in - North - - N/A   Clear
7:50 PM 86.0 °F 86.6 °F 62.6 °F 45% 29.83 in - North - - N/A   Clear
8:20 PM 86.0 °F 86.6 °F 62.6 °F 45% 29.83 in - North - - N/A   Clear
8:50 PM 82.4 °F 84.6 °F 66.2 °F 58% 29.83 in - North - - N/A   Clear
9:00 PM 82 °F - 65 °F 48% 29.84 in 16 mi NW 6.9 mph - -  
9:20 PM 80.6 °F 82.7 °F 66.2 °F 61% 29.83 in - North - - N/A   Clear
9:50 PM 80.6 °F 82.3 °F 64.4 °F 58% 29.83 in - North - - N/A   Clear
10:20 PM 80.6 °F 82.3 °F 64.4 °F 58% 29.83 in - North - - N/A   Clear
10:50 PM 80.6 °F 82.3 °F 64.4 °F 58% 29.83 in - North - - N/A   Clear
11:20 PM 78.8 °F - 64.4 °F 61% 29.83 in - North - - N/A   Clear
11:50 PM 78.8 °F - 64.4 °F 61% 29.83 in - North - - N/A   Clear